Location: El Bakhil
(32.7726°N, 5.5387°W)
Time: 20:06:29
(UTC+00:00)

N. Korean satellite - Pass Details

Date: 11 December 2021
Orbit: 447 x 490 km, 97.3° (Epoch: 27 January)

Event Time Altitude Azimuth Distance (km) Brightness Sun altitude
Exits shadow 06:17:44 12° 329° (NNW) 1,441 8.5 -11.8°
Maximum altitude 06:19:44 19° 288° (WNW) 1,124 7.8 -11.4°
Drops below altitude 10° 06:22:14 10° 240° (WSW) 1,580 8.8 -10.9°
Sets 06:24:39 0° 222° (SW) 2,455 9.9 -10.4°
